Satellite: INMARSAT 3-F1
Catalog number: 23839
Epoch time:      103007.79640949
Element set:     844 
Inclination:        0.0486 deg
RA of node:        10.8038 deg
Eccentricity:    0.0002002
Arg of perigee:   280.8115 deg
Mean anomaly:     165.8863 deg
Mean motion:    1.00271348 rev/day
Decay rate:    2.0999E-007 rev/day^2
Epoch rev:            2479
Checksum:              301

Satellite: ASTRA 1F
Catalog number: 23842
Epoch time:      102364.00000000
Element set:     555 
Inclination:        0.0122 deg
RA of node:       319.8851 deg
Eccentricity:    0.0002995
Arg of perigee:    65.1991 deg
Mean anomaly:      92.4014 deg
Mean motion:    1.00273184 rev/day
Decay rate:    1.2799E-006 rev/day^2
Epoch rev:            2461
Checksum:              248

Satellite: JAS 2
Catalog number: 24278
Epoch time:      103006.94279789
Element set:     553 
Inclination:       98.5312 deg
RA of node:       163.9646 deg
Eccentricity:    0.0350823
Arg of perigee:   327.1487 deg
Mean anomaly:      30.8273 deg
Mean motion:   13.52867628 rev/day
Decay rate:   -3.8999E-007 rev/day^2
Epoch rev:           31554
Checksum:              360

Satellite: UNAMSAT
Catalog number: 24305
Epoch time:      103007.30765233
Element set:     652 
Inclination:       82.9329 deg
RA of node:       294.0327 deg
Eccentricity:    0.0030818
Arg of perigee:   324.6640 deg
Mean anomaly:      35.2463 deg
Mean motion:   13.73446690 rev/day
Decay rate:    2.0499E-006 rev/day^2
Epoch rev:           31768
Checksum:              300

Satellite: INMARSAT 3-F2
Catalog number: 24307
Epoch time:      103008.22650979
Element set:     68 
Inclination:        0.0526 deg
RA of node:        10.9512 deg
Eccentricity:    0.0004588
Arg of perigee:   273.8181 deg
Mean anomaly:     248.5908 deg
Mean motion:    1.00270560 rev/day
Decay rate:   -1.1800E-006 rev/day^2
Epoch rev:            2320
Checksum:              263

Satellite: HOT BIRD 2
Catalog number: 24665
Epoch time:      102364.09542247
Element set:     337 
Inclination:        0.0380 deg
RA of node:       203.9859 deg
Eccentricity:    0.0010678
Arg of perigee:    49.4036 deg
Mean anomaly:     252.3771 deg
Mean motion:    1.00274592 rev/day
Decay rate:    9.5999E-007 rev/day^2
Epoch rev:            2275
Checksum:              310

Satellite: INMARSAT 3-F3
Catalog number: 24674
Epoch time:      103008.40988878
Element set:     964 
Inclination:        0.0576 deg
RA of node:         7.4473 deg
Eccentricity:    0.0004101
Arg of perigee:   268.7339 deg
Mean anomaly:     157.0434 deg
Mean motion:    1.00274721 rev/day
Decay rate:    4.5999E-007 rev/day^2
Epoch rev:            2217
Checksum:              311

Satellite: GOES 10
Catalog number: 24786
Epoch time:      103007.27895316
Element set:     493 
Inclination:        0.0404 deg
RA of node:       113.6385 deg
Eccentricity:    0.0002954
Arg of perigee:   207.5851 deg
Mean anomaly:     110.2326 deg
Mean motion:    1.00276761 rev/day
Decay rate:    9.1999E-007 rev/day^2
Epoch rev:            2091
Checksum:              288

Satellite: INMARSAT 3-F4
Catalog number: 24819
Epoch time:      103005.32604375
Element set:     863 
Inclination:        0.0188 deg
RA of node:       310.9330 deg
Eccentricity:    0.0003657
Arg of perigee:   339.8101 deg
Mean anomaly:     237.1305 deg
Mean motion:    1.00269008 rev/day
Decay rate:   -2.8599E-006 rev/day^2
Epoch rev:            2056
Checksum:              279

Satellite: FENGYUN 2A
Catalog number: 24834
Epoch time:      102363.87585822
Element set:     941 
Inclination:        2.4466 deg
RA of node:        88.8933 deg
Eccentricity:    0.0001931
Arg of perigee:   238.4439 deg
Mean anomaly:     172.5930 deg
Mean motion:    1.00268131 rev/day
Decay rate:   -1.9100E-006 rev/day^2
Epoch rev:            2033
Checksum:              288

Satellite: HOT BIRD 3
Catalog number: 24931
Epoch time:      102364.09542247
Element set:     418 
Inclination:        0.0070 deg
RA of node:       329.5839 deg
Eccentricity:    0.0008855
Arg of perigee:   285.9646 deg
Mean anomaly:     250.1886 deg
Mean motion:    1.00273530 rev/day
Decay rate:    9.5000E-007 rev/day^2
Epoch rev:            1957
Checksum:              298

Satellite: METEOSAT 7
Catalog number: 24932
Epoch time:      103006.93070603
Element set:     222 
Inclination:        0.1230 deg
RA of node:        32.0729 deg
Eccentricity:    0.0001293
Arg of perigee:   230.5013 deg
Mean anomaly:     178.4614 deg
Mean motion:    1.00271789 rev/day
Decay rate:   -2.9999E-008 rev/day^2
Epoch rev:            1959
Checksum:              274

Satellite: ASTRA 1G
Catalog number: 25071
Epoch time:      102364.00000000
Element set:     386 
Inclination:        0.0122 deg
RA of node:       319.8851 deg
Eccentricity:    0.0002995
Arg of perigee:    65.1991 deg
Mean anomaly:      92.3633 deg
Mean motion:    1.00273184 rev/day
Decay rate:    1.2799E-006 rev/day^2
Epoch rev:            1863
Checksum:              257

Satellite: INMARSAT 3-F5
Catalog number: 25153
Epoch time:      103006.84955793
Element set:     828 
Inclination:        0.4478 deg
RA of node:       358.0182 deg
Eccentricity:    0.0003675
Arg of perigee:   272.1214 deg
Mean anomaly:     166.6323 deg
Mean motion:    1.00271699 rev/day
Decay rate:    1.4199E-006 rev/day^2
Epoch rev:            1807
Checksum:              309

Satellite: HOT BIRD 4
Catalog number: 25237
Epoch time:      102364.09542247
Element set:     323 
Inclination:        0.0611 deg
RA of node:       171.7992 deg
Eccentricity:    0.0008910
Arg of perigee:    46.8775 deg
Mean anomaly:     287.0610 deg
Mean motion:    1.00272623 rev/day
Decay rate:    9.5000E-007 rev/day^2
Epoch rev:            1803
Checksum:              267

Satellite: NOAA 15
Catalog number: 25338
Epoch time:      103007.86797515
Element set:     961 
Inclination:       98.5515 deg
RA of node:        31.1474 deg
Eccentricity:    0.0011457
Arg of perigee:    78.7213 deg
Mean anomaly:     281.5252 deg
Mean motion:   14.24223500 rev/day
Decay rate:    1.5099E-006 rev/day^2
Epoch rev:           24186
Checksum:              307

Satellite: RESURS O1-N4
Catalog number: 25394
Epoch time:      103007.89495974
Element set:     418 
Inclination:       98.6367 deg
RA of node:        86.5794 deg
Eccentricity:    0.0000975
Arg of perigee:   195.7700 deg
Mean anomaly:     164.3447 deg
Mean motion:   14.23860179 rev/day
Decay rate:    1.2599E-006 rev/day^2
Epoch rev:           23360
Checksum:              361

Satellite: TMSAT
Catalog number: 25396
Epoch time:      103006.94074496
Element set:     840 
Inclination:       98.6324 deg
RA of node:        84.8651 deg
Eccentricity:    0.0001689
Arg of perigee:   244.8763 deg
Mean anomaly:     115.2241 deg
Mean motion:   14.23496366 rev/day
Decay rate:   -4.3000E-007 rev/day^2
Epoch rev:           23346
Checksum:              313

Satellite: TECHSAT 1B
Catalog number: 25397
Epoch time:      103006.94604558
Element set:     129 
Inclination:       98.6287 deg
RA of node:        83.8087 deg
Eccentricity:    0.0000412
Arg of perigee:   293.5565 deg
Mean anomaly:      66.5569 deg
Mean motion:   14.22948649 rev/day
Decay rate:    7.5999E-007 rev/day^2
Epoch rev:           23343
Checksum:              363

Satellite: ASTRA 2A
Catalog number: 25462
Epoch time:      102364.00000000
Element set:     527 
Inclination:        0.0385 deg
RA of node:       308.7109 deg
Eccentricity:    0.0004824
Arg of perigee:   280.8620 deg
Mean anomaly:     256.9180 deg
Mean motion:    1.00272094 rev/day
Decay rate:    1.5800E-006 rev/day^2
Epoch rev:            1593
Checksum:              241

Satellite: EUTELSAT W2
Catalog number: 25491
Epoch time:      103007.85661516
Element set:     557 
Inclination:        0.0424 deg
RA of node:       109.4965 deg
Eccentricity:    0.0003536
Arg of perigee:   184.7241 deg
Mean anomaly:     137.1129 deg
Mean motion:    1.00271790 rev/day
Decay rate:    1.0799E-006 rev/day^2
Epoch rev:            1563
Checksum:              283

Satellite: HOT BIRD 5
Catalog number: 25495
Epoch time:      103006.93467760
Element set:     489 
Inclination:        0.0548 deg
RA of node:       134.3929 deg
Eccentricity:    0.0004140
Arg of perigee:   158.4163 deg
Mean anomaly:     182.8275 deg
Mean motion:    1.00273279 rev/day
Decay rate:    1.5699E-006 rev/day^2
Epoch rev:            1559
Checksum:              316

Satellite: SEDSAT 1
Catalog number: 25509
Epoch time:      103008.45720274
Element set:     752 
Inclination:       31.4344 deg
RA of node:        25.3271 deg
Eccentricity:    0.0357831
Arg of perigee:   303.8195 deg
Mean anomaly:      52.8852 deg
Mean motion:   14.27349100 rev/day
Decay rate:    1.2020E-005 rev/day^2
Epoch rev:           21943
Checksum:              271

Satellite: PAN SAT
Catalog number: 25520
Epoch time:      103007.76033841
Element set:     626 
Inclination:       28.4618 deg
RA of node:       142.2829 deg
Eccentricity:    0.0005703
Arg of perigee:   259.3032 deg
Mean anomaly:     100.6916 deg
Mean motion:   15.13644907 rev/day
Decay rate:    2.5609E-005 rev/day^2
Epoch rev:           23124
Checksum:              384

Satellite: ISS (ZARYA)
Catalog number: 25544
Epoch time:      103008.51250881
Element set:     558 
Inclination:       51.6342 deg
RA of node:       102.3238 deg
Eccentricity:    0.0005097
Arg of perigee:    11.8220 deg
Mean anomaly:     100.8319 deg
Mean motion:   15.58703067 rev/day
Decay rate:    2.8671E-004 rev/day^2
Epoch rev:           23613
Checksum:              377

